Terminal Aerodrome Forecast
Issued by NWS Houston/Galveston, TX

Home | Current Version | Previous Version | Text Only | Print | Product List | Glossary On
Versions: 1 2 3 4 5 6 7 8 9 10 11 12 13 14 15 16 17 18 19 20 21 22 23 24 25 26 27 28 29 30 31 32 33 34 35 36 37 38 39 40 41 42 43 44 45
000
FTUS44 KHGX 310520
TAFGLS
TAF
KGLS 310520Z 3106/0106 17012KT P6SM SCT017 BKN025 OVC250
     FM310900 18011KT P6SM VCSH SCT023 OVC250
      TEMPO 3111/3115 SHRA BKN022 OVC060
     FM311500 16007KT P6SM VCSH SCT035 OVC090
      TEMPO 3115/3119 -SHRA BKN035
     FM010100 16010KT P6SM SCT100 BKN250=

USA.gov is the U.S. government's official web portal to all federal, state and local government web resources and services.